CAPE
0 4 156 144 50 14 0 7 14 1 0 0 0 0 0 0 2 23 0 0 0 6 133 307 266 86 12 5 2 6 6 7 8 5 2 15 19 16 0 24 26 13 37 36 36 17 9 10 2
0 3 92 100 42 1 1 0 5 4 6 0 0 0 0 0 0 0 0 0 0 43 153 304 240 90 3 1 0 4 7 2 8 10 14 44 22 10 0 22 22 32 57 40 27 6 4 5 2
0 0 51 120 27 8 0 9 8 22 19 0 0 0 51 50 0 0 0 0 0 119 220 245 224 63 1 0 0 2 4 6 12 9 9 9 35 19 31 24 12 24 40 38 10 7 5 25 31
0 0 0 29 5 2 0 0 14 52 63 33 22 5 3 0 0 0 0 0 0 90 200 175 187 45 0 0 1 1 6 10 13 10 10 9 46 45 10 0 6 39 45 29 12 1 0 3 33
0 0 0 0 0 0 10 1 0 12 72 80 79 61 70 0 0 0 0 0 0 0 135 175 146 35 0 0 1 5 7 14 5 6 4 2 26 17 0 24 37 46 36 20 8 0 0 0 17
0 0 0 0 0 1 0 6 0 3 16 121 145 102 98 0 0 0 0 0 0 20 112 128 111 7 0 0 0 4 5 5 0 3 0 0 2 21 27 26 47 53 31 19 1 0 0 0 0
0 0 0 0 0 0 7 7 0 0 0 40 180 109 52 0 0 0 0 0 0 7 40 121 119 0 0 0 0 4 5 2 0 1 0 14 20 27 26 35 43 46 16 13 1 0 0 0 0
0 0 0 0 0 0 0 6 0 0 0 138 182 113 70 0 0 0 0 47 234 0 23 80 93 0 0 0 0 5 5 1 0 0 4 1 14 2 0 18 40 37 2 6 0 0 0 0 0
0 0 0 0 0 0 0 0 0 0 0 7 218 161 40 4 0 34 29 108 209 154 54 189 92 5 0 0 1 17 4 1 0 0 0 0 0 0 2 21 28 17 2 1 0 0 0 0 0
2 0 0 0 0 0 2 0 0 0 0 0 109 136 61 12 14 35 55 195 233 198 297 253 82 15 0 0 2 26 1 0 0 0 0 0 0 0 10 8 11 7 1 1 0 0 0 0 0
0 0 0 0 0 0 0 0 0 0 0 0 0 137 66 19 9 38 11 224 482 378 350 223 71 0 0 0 0 17 3 0 0 0 0 6 5 15 5 0 1 0 0 0 0 0 0 1 0
0 1 0 0 0 0 0 0 0 0 0 0 0 233 194 124 5 70 10 88 163 418 284 195 96 0 0 0 4 0 9 5 3 0 0 9 0 4 0 0 1 0 0 0 0 6 0 0 0
0 0 0 0 0 1 0 0 0 0 0 0 0 0 146 196 83 64 20 42 18 213 309 191 110 0 8 1 13 5 5 6 4 0 0 3 0 0 1 0 0 0 4 4 6 1 0 0 0
0 0 0 0 3 1 0 0 0 0 0 0 0 0 0 169 178 98 90 26 123 102 98 42 16 0 2 1 3 0 11 10 4 0 0 0 0 3 1 0 0 0 0 1 1 0 0 0 0
0 0 0 0 0 0 0 0 0 0 0 0 0 0 0 1 132 169 110 82 86 80 86 34 2 0 0 0 0 10 7 9 0 0 0 0 3 0 4 3 7 1 0 0 1 0 0 0 0
0 0 0 0 0 0 0 0 0 0 0 0 0 0 0 0 4 129 122 111 52 89 68 28 3 0 0 0 0 0 1 0 0 0 0 0 3 0 4 1 2 1 0 0 0 0 0 0 0
0 0 0 0 0 0 0 0 0 0 0 0 0 0 0 0 0 17 78 134 103 56 88 26 12 2 0 1 0 0 0 0 0 0 0 0 0 6 4 1 3 0 0 0 1 0 0 0 0
0 0 0 0 0 0 0 0 0 0 0 0 0 0 0 0 0 0 26 130 117 84 63 22 4 3 2 1 0 0 0 0 0 0 0 0 0 3 1 2 4 0 0 0 0 0 0 0 0
0 0 0 0 0 0 0 0 0 0 0 0 0 0 0 0 0 5 0 75 129 56 22 18 0 5 0 0 0 0 0 3 0 0 0 0 0 0 1 4 3 0 0 0 0 0 0 0 0
0 0 0 0 0 0 0 0 0 0 0 0 0 0 0 0 0 0 29 24 130 79 40 4 0 0 0 1 0 0 0 0 0 0 0 0 0 0 2 3 2 0 0 0 0 0 0 0 0
0 0 0 0 0 0 0 0 0 0 0 0 0 0 0 0 0 0 20 73 102 91 49 13 1 0 0 0 2 0 0 2 0 0 0 0 0 0 0 3 1 0 0 0 0 0 0 0 0
0 0 0 0 0 0 0 0 0 0 0 0 0 0 0 0 0 0 0 67 95 88 91 44 4 0 0 0 0 0 0 0 0 0 0 0 0 0 2 2 1 0 0 0 0 0 0 0 0
0 0 0 0 0 0 0 0 0 0 0 0 0 0 0 0 0 0 0 0 114 124 76 76 25 2 0 2 0 0 2 1 0 2 0 0 0 0 0 0 1 0 0 0 0 0 0 0 0
1 0 0 1 0 1 0 0 0 0 0 0 0 0 0 0 0 0 0 0 2 187 183 92 55 29 0 0 0 0 0 1 2 2 4 1 0 0 0 0 0 0 0 0 0 0 0 0 0
0 0 0 0 0 0 0 0 0 0 0 0 0 0 0 0 0 0 0 0 0 51 241 233 131 76 53 8 0 0 0 1 11 0 4 4 0 0 0 0 8 0 1 0 0 0 0 0 0
0 1 0 0 0 0 0 0 0 0 0 0 0 0 0 0 0 0 0 0 0 0 69 253 149 174 98 35 6 0 0 1 7 4 1 0 0 0 0 0 0 0 0 1 0 0 0 0 0
1 0 1 0 0 0 0 0 0 0 0 0 0 0 0 0 0 0 0 0 0 0 96 79 107 257 115 78 33 1 0 0 1 1 8 0 0 0 0 0 0 0 0 1 0 0 0 0 0
2 0 0 0 0 0 0 0 0 0 0 0 0 1 0 0 0 0 0 0 0 0 10 128 157 227 240 129 121 39 15 12 24 30 2 11 0 0 0 0 0 0 0 0 1 0 0 1 0
0 0 0 0 0 0 0 0 4 0 0 0 0 1 2 0 1 0 0 0 0 0 0 126 212 235 328 280 178 139 58 86 66 78 50 31 25 1 0 0 0 0 0 0 0 1 0 1 1
0 0 0 1 0 0 0 0 0 2 0 0 0 0 0 2 2 2 1 1 0 2 3 1 0 5 24 193 132 147 154 129 55 72 81 73 55 10 3 0 0 0 0 0 0 1 0 1 1
CIN
-0 -11 -44 -37 -19 -8 -0 -37 -6 -3 -0 -0 -0 -0 -0 -0 -14 -31 -0 -0 -0 -328 -102 -10 -6 -50 -182 -1 -2 -1 -0 -0 -0 -1 -2 -0 -0 -0 -0 -2 -2 -0 -0 -0 -0 -0 -0 -0 -0
-0 -10 -40 -17 -2 -4 -23 -6 -12 -24 -21 -0 -0 -0 -0 -0 -0 -0 -0 -0 -0 -247 -87 -16 -11 -45 -36 -1 -0 -1 -0 -0 -3 -3 -0 -2 -3 -0 -0 -2 -2 -1 -0 -0 -0 -0 -0 -0 -0
-0 -0 -22 -15 -7 -2 -0 -24 -17 -15 -58 -0 -0 -0 -32 -110 -0 -0 -0 -0 -0 -120 -40 -17 -23 -68 -34 -0 -0 -1 -0 -0 -1 -0 -0 -0 -1 -0 -3 -7 -2 -0 -0 -0 -1 -0 -0 -2 -7
-0 -0 -0 -2 -9 -2 -0 -0 -30 -18 -56 -62 -41 -16 -54 -0 -0 -0 -0 -0 -0 -137 -60 -26 -28 -119 -0 -0 -2 -0 -1 -0 -2 -1 -0 -0 -0 -0 -3 -0 -2 -2 -0 -1 -7 -0 -0 -6 -12
-0 -0 -0 -0 -0 -0 -11 -2 -0 -7 -22 -31 -43 -23 -110 -0 -0 -0 -0 -0 -0 -0 -110 -35 -29 -112 -0 -0 -2 -2 -1 -2 -2 -0 -0 -0 -0 -0 -0 -0 -0 -1 -0 -3 -8 -0 -0 -0 -13
-0 -0 -0 -0 -0 -1 -0 -9 -0 -3 -13 -7 -39 -21 -132 -0 -0 -0 -0 -0 -0 -113 -135 -65 -47 -109 -0 -0 -0 -3 -4 -4 -0 -0 -0 -0 -0 -0 -0 -0 -0 -0 -0 -4 -7 -0 -0 -0 -0
-0 -0 -0 -0 -0 -0 -3 -5 -5 -0 -0 -12 -12 -16 -181 -0 -0 -0 -0 -0 -0 -309 -239 -74 -55 -0 -0 -0 -0 -5 -4 -3 -0 -0 -0 -5 -2 -2 -0 -0 -0 -0 -4 -10 -0 -0 -0 -0 -0
-0 -0 -0 -0 -0 -0 -0 -7 -0 -0 -0 -24 -20 -22 -72 -0 -0 -0 -0 -176 -102 -6 -163 -130 -81 -0 -0 -0 -0 -3 -4 -10 -0 -0 -6 -1 -6 -3 -0 -3 -2 -0 -0 -17 -0 -0 -0 -0 -0
-0 -0 -0 -0 -0 -0 -0 -0 -0 -0 -0 -34 -29 -93 -193 -289 -0 -258 -237 -144 -98 -107 -168 -49 -87 -116 -0 -0 -2 -3 -7 -10 -0 -0 -0 -0 -0 -0 -1 -3 -2 -4 -1 -0 -0 -0 -0 -0 -0
-0 -0 -0 -0 -0 -0 -4 -0 -0 -0 -0 -0 -41 -122 -147 -246 -221 -250 -226 -133 -111 -99 -53 -32 -92 -112 -0 -0 -1 -2 -4 -0 -0 -0 -0 -0 -0 -0 -12 -10 -7 -4 -1 -0 -0 -0 -0 -0 -0
-0 -0 -0 -0 -0 -0 -0 -0 -0 -0 -0 -0 -0 -62 -126 -192 -190 -205 -192 -83 -31 -33 -24 -42 -92 -0 -0 -0 -0 -3 -26 -4 -0 -0 -0 -6 -20 -18 -25 -0 -3 -0 -1 -0 -0 -0 -0 -3 -0
-0 -0 -0 -0 -0 -0 -0 -0 -0 -0 -0 -0 -0 -43 -106 -148 -202 -161 -165 -113 -79 -14 -21 -31 -62 -0 -0 -0 -1 -0 -28 -15 -13 -0 -0 -8 -5 -20 -0 -0 -0 -0 -0 -0 -0 -12 -6 -0 -0
-0 -0 -0 -0 -0 -10 -0 -0 -0 -0 -0 -0 -0 -0 -83 -123 -154 -141 -160 -92 -97 -41 -4 -11 -15 -1 -3 -13 -8 -26 -19 -16 -6 -0 -0 -4 -0 -0 -8 -0 -0 -0 -4 -3 -6 -5 -0 -0 -0
-0 -0 -0 -0 -9 -18 -0 -0 -0 -0 -0 -0 -0 -0 -0 -87 -119 -127 -141 -167 -102 -76 -53 -50 -84 -28 -5 -6 -4 -0 -12 -10 -6 -0 -0 -0 -0 -3 -6 -0 -0 -0 -0 -8 -2 -0 -0 -0 -0
-0 -0 -0 -0 -0 -0 -0 -0 -0 -0 -0 -0 -0 -0 -0 -7 -74 -100 -126 -139 -115 -109 -79 -69 -6 -0 -0 -0 -0 -9 -9 -12 -5 -0 -0 -0 -3 -0 -5 -15 -20 -7 -0 -0 -1 -0 -0 -0 -0
-0 -0 -0 -0 -0 -0 -0 -0 -0 -0 -0 -0 -0 -0 -0 -0 -14 -93 -103 -122 -119 -110 -164 -112 -75 -1 -1 -0 -0 -0 -3 -0 -0 -0 -0 -0 -2 -0 -2 -3 -6 -6 -0 -0 -1 -0 -0 -0 -0
-0 -0 -0 -0 -0 -0 -0 -0 -0 -0 -0 -0 -0 -0 -0 -0 -0 -87 -124 -138 -141 -132 -166 -177 -126 -16 -2 -4 -0 -0 -0 -0 -0 -0 -0 -0 -0 -1 -2 -5 -8 -5 -0 -0 -0 -0 -0 -0 -0
-0 -0 -0 -0 -0 -0 -0 -0 -0 -0 -0 -0 -0 -0 -0 -0 -0 -0 -96 -132 -142 -125 -179 -178 -167 -22 -12 -5 -3 -0 -0 -0 -2 -0 -0 -0 -0 -2 -6 -3 -16 -0 -1 -0 -2 -0 -0 -0 -0
-0 -0 -0 -0 -0 -0 -0 -0 -0 -0 -0 -0 -0 -0 -0 -0 -0 -35 -0 -139 -125 -90 -159 -216 -0 -218 -0 -0 -0 -0 -0 -5 -0 -0 -0 -0 -0 -0 -6 -10 -11 -2 -0 -0 -1 -2 -0 -0 -0
-0 -0 -0 -0 -0 -0 -0 -0 -0 -0 -0 -0 -0 -0 -0 -0 -0 -0 -56 -99 -119 -125 -136 -188 -0 -0 -0 -19 -0 -0 -0 -0 -0 -0 -0 -0 -0 -0 -1 -9 -11 -0 -2 -2 -0 -0 -0 -0 -0
-0 -0 -0 -0 -0 -0 -0 -0 -0 -0 -0 -0 -0 -0 -0 -0 -0 -0 -26 -114 -124 -149 -128 -157 -94 -0 -0 -0 -14 -0 -0 -1 -0 -0 -0 -0 -0 -0 -0 -4 -10 -0 -0 -0 -0 -0 -0 -0 -0
-1 -0 -0 -0 -0 -0 -0 -0 -0 -0 -0 -0 -0 -0 -0 -0 -0 -0 -0 -51 -97 -155 -172 -118 -197 -0 -0 -0 -0 -10 -0 -0 -0 -0 -0 -0 -0 -0 -4 -3 -6 -0 -0 -0 -0 -0 -0 -0 -0
-1 -0 -0 -0 -3 -0 -0 -0 -0 -0 -0 -0 -0 -0 -0 -0 -0 -0 -0 -0 -39 -78 -139 -161 -139 -186 -3 -0 -0 -0 -3 -6 -0 -3 -0 -0 -0 -0 -0 -0 -2 -0 -0 -0 -0 -0 -0 -0 -0
-5 -1 -0 -0 -0 -0 -0 -0 -0 -0 -0 -0 -0 -0 -0 -0 -0 -0 -0 -0 -1 -46 -66 -96 -89 -131 -12 -0 -0 -0 -0 -1 -2 -4 -2 -1 -0 -0 -0 -0 -0 -0 -2 -0 -0 -0 -0 -0 -0
-0 -4 -0 -0 -0 -0 -0 -0 -0 -0 -0 -0 -0 -0 -0 -0 -0 -0 -0 -0 -0 -24 -43 -55 -57 -75 -128 -234 -0 -0 -0 -0 -3 -6 -6 -2 -0 -0 -0 -0 -200 -0 -4 -0 -0 -0 -0 -0 -0
-0 -2 -0 -0 -0 -0 -0 -0 -0 -0 -0 -0 -0 -0 -0 -0 -0 -0 -0 -0 -0 -0 -34 -42 -27 -62 -96 -189 -246 -0 -0 -89 -1 -5 -9 -1 -0 -0 -0 -0 -0 -0 -0 -1 -0 -0 -0 -0 -0
-0 -0 -1 -2 -0 -0 -0 -0 -0 -0 -0 -0 -0 -0 -0 -0 -0 -0 -0 -0 -0 -0 -42 -65 -36 -37 -73 -136 -171 -97 -0 -0 -32 -1 -5 -0 -0 -0 -0 -0 -0 -0 -0 -0 -0 -0 -0 -0 -0
-0 -0 -0 -0 -0 -0 -0 -0 -0 -0 -0 -0 -0 -0 -0 -0 -0 -0 -0 -0 -0 -0 -99 -31 -27 -36 -40 -89 -99 -119 -118 -78 -25 -26 -44 -48 -0 -0 -0 -0 -0 -0 -0 -0 -0 -0 -0 -0 -0
-0 -0 -0 -0 -0 -0 -0 -0 -0 -0 -0 -0 -0 -0 -0 -0 -1 -0 -0 -0 -0 -0 -0 -41 -37 -24 -4 -6 -27 -47 -149 -77 -26 -18 -24 -37 -61 -71 -0 -0 -0 -0 -0 -0 -0 -0 -0 -0 -0
-0 -0 -0 -2 -0 -0 -0 -0 -0 -0 -0 -0 -0 -0 -0 -0 -0 -0 -0 -0 -0 -0 -0 -0 -0 -1 -26 -10 -20 -9 -46 -91 -57 -12 -31 -24 -11 -45 -115 -0 -0 -0 -0 -0 -0 -0 -0 -0 -0
Wind_Speed
28 26 23 19 21 22 29 28 21 20 19 16 17 14 15 15 16 13 4 8 9 12 15 15 15 10 7 3 1 3 4 6 3 3 9 14 18 20 18 22 23 24 25 25 23 23 21 22 21
27 27 19 16 14 29 27 24 21 20 13 13 15 16 16 13 13 8 10 7 8 11 13 13 14 12 8 4 2 4 6 6 1 3 5 15 18 18 15 18 21 23 25 24 23 22 22 22 22
27 25 17 12 7 29 29 20 19 13 14 14 15 15 16 14 10 5 7 5 8 10 12 12 13 12 8 4 2 1 6 5 2 4 5 9 13 16 15 17 20 22 24 24 22 22 22 21 21
21 17 18 14 9 3 30 26 21 14 15 16 17 14 13 16 9 9 1 4 7 9 9 12 13 12 8 4 2 3 4 4 3 4 6 9 13 16 16 17 18 21 23 24 22 21 21 21 19
22 21 15 13 9 33 32 26 19 21 15 14 15 15 14 14 10 4 1 3 5 7 9 11 12 10 7 4 2 3 3 1 3 4 6 8 11 14 15 16 18 21 22 23 22 21 20 20 19
21 18 21 17 17 8 22 21 25 23 21 12 16 17 15 10 6 4 2 2 3 6 8 9 9 9 6 4 3 4 3 1 3 4 6 8 11 13 15 16 17 19 20 22 21 20 20 19 18
24 21 23 22 24 22 18 14 23 28 24 22 16 19 14 9 3 3 1 3 3 5 6 8 7 7 5 4 3 3 3 2 3 4 6 6 9 12 13 15 16 17 18 19 20 20 19 19 18
24 26 31 23 24 29 27 15 14 24 22 21 14 19 16 7 1 1 3 6 5 3 5 8 7 7 6 5 2 2 2 1 2 4 5 6 8 10 12 14 15 15 16 17 18 19 19 18 17
23 28 30 28 28 26 28 21 21 19 25 23 18 16 17 4 3 3 5 9 10 7 6 8 7 6 6 6 5 2 3 1 2 4 4 5 6 9 12 13 14 14 14 15 16 18 19 18 17
21 26 29 30 30 30 27 23 20 17 24 27 22 17 7 3 6 8 7 8 10 11 9 8 8 7 6 7 7 4 3 3 5 4 3 4 5 7 9 11 12 13 12 13 14 15 17 17 16
23 32 27 32 30 28 28 26 22 26 23 21 20 15 8 8 7 8 13 14 12 12 14 10 9 8 8 7 8 7 5 6 5 5 3 4 4 5 7 8 9 11 12 11 12 13 13 15 15
32 26 29 37 36 30 30 30 31 30 30 17 18 15 13 14 13 10 11 15 16 15 15 13 11 9 9 8 9 9 7 7 6 5 6 3 2 3 5 6 7 9 10 11 11 11 11 13 13
30 33 34 31 31 30 33 37 36 37 33 23 18 19 16 18 16 14 11 14 13 20 16 15 16 12 11 9 11 10 11 10 7 4 7 5 3 2 3 4 4 6 7 8 9 10 10 11 12
27 31 33 33 29 30 35 40 38 34 33 38 32 21 22 19 18 18 14 13 11 14 19 19 17 16 16 12 12 11 11 11 10 7 7 5 4 3 1 2 3 4 5 7 8 8 9 10 11
28 34 35 35 33 32 29 42 44 39 38 40 36 31 25 22 19 21 23 19 14 13 16 20 20 16 17 17 15 11 10 12 11 9 8 7 5 5 4 1 2 3 4 5 7 7 8 9 10
23 25 28 26 28 33 31 46 37 35 37 39 40 38 24 23 21 21 24 24 21 15 16 17 22 20 17 16 16 17 15 13 13 12 10 9 8 5 4 5 3 2 3 4 5 5 6 7 8
19 29 27 28 22 26 24 32 29 33 38 38 34 36 35 32 23 21 20 22 26 20 15 17 20 22 20 18 17 17 17 15 15 13 12 11 11 8 7 6 4 3 3 3 3 4 4 5 7
24 26 27 26 23 25 32 38 38 37 36 35 33 33 34 34 27 21 19 19 23 23 19 18 18 22 24 22 20 19 18 16 15 15 14 12 13 11 9 8 6 5 4 4 3 3 4 4 5
28 30 31 32 33 36 34 38 38 37 39 39 39 36 37 36 35 23 21 19 18 23 22 21 19 18 21 23 22 20 20 17 17 16 15 14 14 13 11 11 9 8 7 6 4 4 2 4 4
25 29 32 32 27 31 36 43 40 40 42 41 37 35 34 37 35 33 22 21 22 19 25 22 21 20 18 21 22 23 23 22 21 19 18 16 15 15 15 13 12 11 10 9 7 5 5 8 2
25 27 30 33 35 34 39 41 33 31 31 34 37 38 34 34 36 34 26 24 23 24 24 27 26 25 22 20 22 25 21 22 20 19 19 18 16 16 15 15 14 13 13 12 10 9 7 9 7
28 24 27 29 29 31 29 41 35 33 31 25 27 32 36 37 37 37 38 28 27 27 25 25 25 27 26 22 21 23 23 20 21 22 22 22 22 20 18 17 17 16 16 15 14 12 11 11 10
23 27 30 30 32 34 31 35 36 29 32 28 30 30 30 32 34 39 41 40 31 29 29 29 25 27 27 29 23 21 23 27 22 21 22 22 22 22 20 19 19 18 18 18 17 15 15 14 15
26 28 29 25 27 34 30 29 38 31 30 36 37 32 33 32 31 33 35 40 38 32 29 30 32 28 26 25 25 20 24 23 23 19 21 22 23 23 23 21 21 20 20 20 20 19 18 18 18
21 26 26 25 25 28 26 28 34 40 36 31 32 33 35 34 35 37 36 37 39 34 31 30 31 32 26 28 27 23 23 23 24 21 20 22 23 24 23 23 23 23 23 23 23 23 22 22 21
9 13 20 21 23 27 31 27 26 26 29 33 36 38 38 37 38 40 41 39 40 38 34 33 33 33 29 27 28 26 25 25 23 23 20 22 24 24 24 24 24 24 24 24 24 25 26 25 24
12 16 19 17 16 23 19 16 15 29 33 37 42 44 44 41 41 42 42 40 40 38 35 34 33 34 33 27 28 30 25 26 24 23 22 24 23 24 24 23 24 25 26 26 26 27 27 27 27
11 8 13 13 4 3 7 6 2 27 34 44 43 41 41 40 41 40 38 38 36 37 37 34 34 34 34 31 29 29 26 24 28 28 30 21 21 22 22 22 23 24 26 27 27 28 28 28 29
13 10 9 9 14 8 1 7 10 10 27 16 18 24 35 36 36 34 36 36 35 33 31 31 32 33 34 35 30 31 31 25 24 27 29 28 24 21 22 21 22 23 25 25 27 28 29 30 30
9 8 8 8 9 8 6 4 28 34 15 9 9 20 14 8 31 30 31 30 29 26 23 22 23 28 34 34 33 33 34 31 25 26 31 29 31 25 22 23 23 24 24 25 27 29 31 32 32
Wind_Direction
277 279 307 313 287 279 269 272 291 296 295 309 304 314 314 323 298 293 329 298 91 111 116 113 109 103 109 128 124 212 214 211 226 17 37 47 56 59 57 66 65 65 68 65 52 47 42 45 50
287 271 310 320 310 266 271 282 286 289 311 317 307 299 307 323 333 333 284 282 96 116 119 116 114 107 108 118 119 214 216 217 265 4 2 53 59 56 46 54 58 62 70 63 50 46 45 45 52
283 280 307 324 302 269 266 298 295 305 300 307 299 299 296 317 351 5 306 92 106 119 120 119 120 115 113 128 160 151 220 228 280 10 2 25 40 56 46 51 58 64 72 66 53 48 47 45 48
293 298 298 298 299 215 268 281 296 300 300 294 290 299 311 297 343 309 345 104 115 122 121 123 125 120 123 143 172 214 218 237 19 356 9 26 41 57 49 53 53 64 71 68 56 48 47 46 43
283 284 290 289 282 232 252 278 303 295 300 294 288 291 298 303 334 16 124 129 125 130 122 128 129 129 134 146 176 218 219 261 20 4 15 20 31 51 50 54 56 68 71 70 58 47 45 46 41
282 284 283 283 287 282 212 285 278 284 287 303 284 283 291 315 350 59 179 168 140 135 128 135 140 140 142 149 117 227 231 285 1 356 7 32 38 50 57 56 62 70 66 68 62 50 44 44 40
275 277 278 281 284 290 293 293 279 275 278 283 291 275 290 296 350 61 180 219 173 141 142 147 166 167 160 179 136 223 229 273 3 348 19 7 35 53 51 59 66 66 65 64 63 54 46 43 41
274 277 273 277 280 277 279 300 297 274 277 287 302 279 282 281 109 51 265 239 243 172 153 160 160 200 214 225 183 202 222 277 337 357 19 19 30 38 48 57 68 65 66 62 60 58 53 45 41
276 271 270 271 274 278 280 287 285 291 274 280 288 291 287 279 235 273 257 248 242 230 185 176 177 184 222 236 236 188 222 237 331 343 12 29 22 40 58 62 63 63 63 63 60 61 60 50 38
270 268 272 268 271 279 281 278 284 289 279 271 277 285 280 263 251 259 247 238 233 229 218 198 195 204 213 239 234 240 230 259 285 308 355 8 38 39 41 59 61 59 56 57 60 65 67 57 42
274 269 274 269 274 280 276 274 282 276 282 281 276 279 264 256 251 259 257 250 246 233 234 218 211 214 220 228 232 247 246 261 281 289 294 321 20 38 41 50 53 56 54 51 60 66 60 48 39
273 274 275 269 268 277 269 271 272 273 269 285 286 287 272 265 254 251 255 252 248 245 238 230 223 219 224 229 237 243 245 257 272 279 277 296 336 10 43 45 62 65 66 63 67 41 31 41 36
277 272 273 277 277 274 268 264 269 268 268 279 284 283 275 267 258 256 253 254 247 248 243 233 238 231 237 231 244 244 248 253 267 264 275 279 294 313 34 55 54 62 54 58 42 40 41 48 45
290 282 278 275 278 276 268 264 267 269 269 263 267 280 272 267 259 254 251 251 237 238 245 247 240 241 245 246 242 246 249 251 263 262 268 268 272 278 314 25 47 31 41 41 35 46 49 46 50
292 279 279 275 274 274 278 264 261 265 266 265 266 268 269 267 262 258 256 253 247 235 240 245 252 240 244 248 246 250 251 250 258 262 262 263 268 264 283 302 7 46 25 34 36 40 38 38 44
301 290 283 288 279 273 269 261 267 269 266 265 263 262 265 264 262 262 259 256 254 240 236 237 249 250 243 245 248 255 255 252 257 261 261 260 266 248 261 280 289 329 1 28 31 33 28 32 48
306 285 282 286 291 284 267 273 274 268 268 267 266 263 263 265 261 259 258 256 254 251 233 240 240 248 248 246 249 253 257 256 257 258 259 255 262 255 262 270 275 284 306 340 14 19 27 31 47
300 292 289 285 294 293 277 270 268 273 273 271 269 269 266 265 260 255 252 251 255 254 242 241 241 242 248 252 252 251 258 254 256 256 258 255 257 261 261 263 266 269 275 292 322 358 9 14 36
297 291 287 286 290 287 281 275 274 272 270 270 268 270 269 269 268 263 249 245 244 253 248 245 239 236 237 248 250 248 252 251 256 254 255 254 255 255 258 260 261 265 264 269 275 309 340 347 8
306 295 290 291 295 293 285 277 278 274 269 267 270 271 271 269 269 266 255 251 247 247 252 246 241 237 235 240 249 256 254 257 257 257 253 252 252 252 256 257 258 256 265 264 264 266 294 309 299
311 306 299 290 293 294 286 282 283 281 277 273 270 270 275 271 269 268 265 254 251 250 251 252 249 244 242 247 248 256 255 258 255 252 253 247 249 251 250 257 260 255 261 261 260 256 257 285 275
309 318 311 305 301 292 307 279 282 286 287 285 280 277 274 272 271 269 266 261 255 253 252 248 247 247 246 242 250 245 251 246 255 257 257 254 253 253 251 254 255 254 259 259 259 259 261 273 274
321 318 310 305 300 299 300 286 282 292 287 291 290 289 280 276 273 269 267 267 260 257 254 250 246 247 246 249 247 248 245 259 259 260 258 255 251 253 252 250 253 252 255 260 257 257 260 263 274
319 317 311 314 310 298 303 291 289 291 294 293 289 293 290 286 279 274 273 267 268 257 256 252 249 247 243 243 249 243 249 251 260 255 257 254 255 252 253 249 252 255 253 257 257 257 257 263 272
343 327 320 315 314 308 318 300 287 296 296 302 299 295 291 290 284 281 279 273 268 262 253 252 249 247 246 245 247 251 252 251 256 256 259 260 258 258 250 251 251 255 257 260 261 258 259 260 265
49 35 345 321 322 320 320 315 311 319 315 307 301 296 293 291 288 281 277 278 277 264 254 251 251 248 246 246 247 254 257 258 253 261 259 262 263 263 261 253 252 251 256 258 261 264 263 262 263
67 27 359 1 346 342 354 359 1 325 321 316 305 297 291 289 286 283 276 278 276 274 258 248 250 249 248 246 249 253 256 256 259 257 261 265 265 265 264 259 255 256 257 257 260 265 265 265 263
87 54 50 24 121 102 214 243 176 297 299 321 317 306 296 292 288 283 278 276 276 278 273 252 252 251 249 248 249 249 256 260 263 263 263 264 266 265 264 259 257 258 259 259 258 263 267 266 268
65 83 108 67 16 61 121 56 50 286 337 298 290 294 305 296 292 285 280 276 273 278 278 257 253 254 254 251 252 253 254 258 266 267 269 269 276 268 266 262 260 259 261 260 260 259 264 266 267
106 110 100 89 86 82 75 63 0 340 297 294 4 280 266 246 290 292 284 275 267 273 273 268 266 265 261 253 255 256 256 257 267 270 271 275 272 271 270 271 266 265 263 263 263 264 267 267 266